Time,TemperatureF,DewpointF,PressureIn,WindDirection,WindDirectionDegrees,WindSpeedMPH,WindSpeedGustMPH,Humidity,HourlyPrecipIn,Conditions,Clouds,dailyrainin,SoftwareType,DateUTC
2013-04-12 00:03:00,59.2,49.1,29.59,NNW,327,5.0,8.7,69,0.04,,,-99.99,FreeWX 2.04,2013-04-12 04:03:00,
2013-04-12 00:13:00,58.8,49.1,29.59,NW,311,7.0,11.0,70,0.08,,,-99.99,FreeWX 2.04,2013-04-12 04:13:00,
2013-04-12 00:23:00,58.8,49.1,29.56,NNW,331,6.0,13.4,70,0.08,,,-99.99,FreeWX 2.04,2013-04-12 04:23:00,
2013-04-12 00:33:00,59.0,49.6,29.56,NNW,336,4.0,7.4,71,0.04,,,-99.99,FreeWX 2.04,2013-04-12 04:33:00,
2013-04-12 00:43:00,58.8,49.1,29.56,NNW,334,4.0,6.3,70,0.04,,,-99.99,FreeWX 2.04,2013-04-12 04:43:00,
2013-04-12 00:53:00,58.8,49.1,29.56,NNW,341,4.0,6.9,70,0.04,,,-99.99,FreeWX 2.04,2013-04-12 04:53:00,
2013-04-12 01:03:00,58.8,49.1,29.56,NNW,335,4.0,6.9,70,0.04,,,-99.99,FreeWX 2.04,2013-04-12 05:03:00,
2013-04-12 01:13:00,58.8,49.1,29.56,NNW,339,3.0,7.8,70,0.00,,,-99.99,FreeWX 2.04,2013-04-12 05:13:00,
2013-04-12 01:23:00,58.8,49.1,29.56,NNW,334,2.0,5.4,70,0.00,,,-99.99,FreeWX 2.04,2013-04-12 05:23:00,
2013-04-12 01:33:00,58.8,49.1,29.56,NNW,332,3.0,6.9,70,0.00,,,-99.99,FreeWX 2.04,2013-04-12 05:33:00,
2013-04-12 01:43:00,58.8,49.1,29.56,NW,315,3.0,6.7,70,0.00,,,-99.99,FreeWX 2.04,2013-04-12 05:43:00,
2013-04-12 01:53:00,58.8,49.1,29.56,NNW,332,4.0,7.4,70,0.00,,,-99.99,FreeWX 2.04,2013-04-12 05:53:00,
2013-04-12 02:03:00,58.8,49.5,29.53,NNW,340,2.0,7.4,71,0.00,,,-99.99,FreeWX 2.04,2013-04-12 06:03:00,
2013-04-12 02:13:00,58.8,49.5,29.53,NNW,335,3.0,7.8,71,0.00,,,-99.99,FreeWX 2.04,2013-04-12 06:13:00,
2013-04-12 02:23:00,58.8,49.5,29.53,North,-999,0.0,5.4,71,0.00,,,-99.99,FreeWX 2.04,2013-04-12 06:23:00,
2013-04-12 02:33:00,58.8,49.5,29.53,NNW,346,1.0,4.0,71,0.00,,,-99.99,FreeWX 2.04,2013-04-12 06:33:00,
2013-04-12 02:43:00,59.0,49.6,29.53,NW,321,2.0,5.4,71,0.00,,,-99.99,FreeWX 2.04,2013-04-12 06:43:00,
2013-04-12 02:53:00,59.0,49.6,29.53,NNW,339,1.0,4.5,71,0.00,,,-99.99,FreeWX 2.04,2013-04-12 06:53:00,
2013-04-12 03:03:00,58.8,49.1,29.53,North,-999,0.0,3.1,70,0.00,,,-99.99,FreeWX 2.04,2013-04-12 07:03:00,
2013-04-12 03:13:00,58.8,49.1,29.53,North,-999,0.0,3.1,70,0.00,,,-99.99,FreeWX 2.04,2013-04-12 07:13:00,
2013-04-12 03:23:00,59.0,49.3,29.50,WNW,294,1.0,4.0,70,0.00,,,-99.99,FreeWX 2.04,2013-04-12 07:23:00,
2013-04-12 03:33:00,59.0,49.3,29.50,North,-999,0.0,0.0,70,0.00,,,-99.99,FreeWX 2.04,2013-04-12 07:33:00,
2013-04-12 03:43:00,59.0,49.3,29.50,North,-999,0.0,0.0,70,0.00,,,-99.99,FreeWX 2.04,2013-04-12 07:43:00,
2013-04-12 03:53:00,59.0,49.3,29.50,North,-999,0.0,4.0,70,0.00,,,-99.99,FreeWX 2.04,2013-04-12 07:53:00,
2013-04-12 04:03:00,59.0,49.3,29.50,North,351,1.0,4.9,70,0.00,,,-99.99,FreeWX 2.04,2013-04-12 08:03:00,
2013-04-12 04:13:00,59.0,49.3,29.50,North,-999,0.0,4.5,70,0.00,,,-99.99,FreeWX 2.04,2013-04-12 08:13:00,
2013-04-12 04:23:00,58.6,48.6,29.50,ESE,114,2.0,4.9,69,0.04,,,-99.99,FreeWX 2.04,2013-04-12 08:23:00,
2013-04-12 04:33:00,58.6,48.9,29.53,ENE,71,2.0,6.7,70,0.04,,,-99.99,FreeWX 2.04,2013-04-12 08:33:00,
2013-04-12 04:43:00,58.8,49.5,29.53,East,101,2.0,8.7,71,0.04,,,-99.99,FreeWX 2.04,2013-04-12 08:43:00,
2013-04-12 04:53:00,59.0,50.0,29.53,ENE,74,3.0,6.9,72,0.08,,,-99.99,FreeWX 2.04,2013-04-12 08:53:00,
2013-04-12 05:07:00,58.1,48.0,29.56,East,93,4.0,11.2,69,0.08,,,-99.99,FreeWX 2.04,2013-04-12 09:07:00,
2013-04-12 05:17:00,56.8,42.6,29.59,East,79,4.0,10.1,59,0.08,,,-99.99,FreeWX 2.04,2013-04-12 09:17:00,
2013-04-12 05:27:00,56.3,42.6,29.59,East,81,4.0,7.4,60,0.04,,,-99.99,FreeWX 2.04,2013-04-12 09:27:00,
2013-04-12 05:37:00,55.9,41.4,29.59,ENE,77,4.0,11.2,58,0.04,,,-99.99,FreeWX 2.04,2013-04-12 09:37:00,
2013-04-12 05:47:00,55.4,40.8,29.59,East,79,4.0,7.4,58,0.00,,,-99.99,FreeWX 2.04,2013-04-12 09:47:00,
2013-04-12 05:57:00,54.7,40.6,29.59,ESE,115,3.0,9.2,59,0.00,,,-99.99,FreeWX 2.04,2013-04-12 09:57:00,
2013-04-12 06:07:00,54.3,40.8,29.59,East,95,4.0,16.8,60,0.00,,,-99.99,FreeWX 2.04,2013-04-12 10:07:00,
2013-04-12 06:17:00,54.1,40.1,29.62,ENE,63,4.0,10.1,59,0.00,,,-99.99,FreeWX 2.04,2013-04-12 10:17:00,
2013-04-12 06:27:00,54.0,39.6,29.62,NE,53,4.0,9.2,58,0.00,,,-99.99,FreeWX 2.04,2013-04-12 10:27:00,
2013-04-12 06:37:00,53.8,38.5,29.65,ESE,102,4.0,10.1,56,0.00,,,-99.99,FreeWX 2.04,2013-04-12 10:37:00,
2013-04-12 06:47:00,53.6,38.7,29.65,ENE,68,4.0,8.7,57,0.00,,,-99.99,FreeWX 2.04,2013-04-12 10:47:00,
2013-04-12 06:57:00,53.4,38.1,29.65,NNE,18,4.0,10.1,56,0.00,,,-99.99,FreeWX 2.04,2013-04-12 10:57:00,
2013-04-12 07:07:00,53.1,37.8,29.65,East,96,3.0,11.0,56,0.00,,,-99.99,FreeWX 2.04,2013-04-12 11:07:00,
2013-04-12 07:17:00,52.9,37.6,29.68,NNE,18,4.0,8.7,56,0.00,,,-99.99,FreeWX 2.04,2013-04-12 11:17:00,
2013-04-12 07:27:00,52.5,36.3,29.68,ENE,70,4.0,9.2,54,0.00,,,-99.99,FreeWX 2.04,2013-04-12 11:27:00,
2013-04-12 07:37:00,52.2,35.6,29.68,ENE,69,6.0,11.2,53,0.00,,,-99.99,FreeWX 2.04,2013-04-12 11:37:00,
2013-04-12 07:47:00,51.4,34.0,29.71,East,83,5.0,12.1,51,0.00,,,-99.99,FreeWX 2.04,2013-04-12 11:47:00,
2013-04-12 07:57:00,50.7,33.8,29.71,ESE,108,4.0,14.8,52,0.00,,,-99.99,FreeWX 2.04,2013-04-12 11:57:00,
2013-04-12 08:07:00,50.5,34.0,29.71,East,92,4.0,10.1,53,0.00,,,-99.99,FreeWX 2.04,2013-04-12 12:07:00,
2013-04-12 08:22:00,50.7,32.2,29.71,NE,43,5.0,12.1,49,0.00,,,-99.99,FreeWX 2.04,2013-04-12 12:22:00,
2013-04-12 08:32:00,50.2,29.7,29.74,NNE,23,5.0,11.6,45,0.00,,,-99.99,FreeWX 2.04,2013-04-12 12:32:00,
2013-04-12 08:42:00,50.7,27.9,29.74,North,4,6.0,11.6,41,0.00,,,-99.99,FreeWX 2.04,2013-04-12 12:42:00,
2013-04-12 08:57:00,50.4,25.7,29.74,North,4,5.0,11.2,38,0.00,,,-99.99,FreeWX 2.04,2013-04-12 12:57:00,
2013-04-12 09:07:00,50.9,25.5,29.76,NNE,25,6.0,19.0,37,0.00,,,-99.99,FreeWX 2.04,2013-04-12 13:07:00,
2013-04-12 09:17:00,50.4,23.0,29.76,NE,39,7.0,13.4,34,0.00,,,-99.99,FreeWX 2.04,2013-04-12 13:17:00,
2013-04-12 09:27:00,50.2,23.5,29.76,NNE,21,5.0,12.5,35,0.00,,,-99.99,FreeWX 2.04,2013-04-12 13:27:00,
2013-04-12 09:37:00,50.9,18.1,29.76,NNE,27,6.0,12.5,27,0.00,,,-99.99,FreeWX 2.04,2013-04-12 13:37:00,
2013-04-12 09:47:00,51.1,19.9,29.76,North,357,5.0,11.2,29,0.00,,,-99.99,FreeWX 2.04,2013-04-12 13:47:00,
2013-04-12 10:02:00,51.6,18.7,29.76,North,359,7.0,15.2,27,0.00,,,-99.99,FreeWX 2.04,2013-04-12 14:02:00,
2013-04-12 10:22:00,51.1,18.3,29.76,NNE,28,7.0,16.3,27,0.00,,,-99.99,FreeWX 2.04,2013-04-12 14:22:00,
2013-04-12 10:32:00,51.6,17.8,29.76,NNE,25,6.0,15.2,26,0.00,,,-99.99,FreeWX 2.04,2013-04-12 14:32:00,
2013-04-12 10:42:00,53.6,19.6,29.76,NNE,20,5.0,10.1,26,0.00,,,-99.99,FreeWX 2.04,2013-04-12 14:42:00,
2013-04-12 10:52:00,55.4,20.1,29.76,North,9,6.0,12.5,25,0.00,,,-99.99,FreeWX 2.04,2013-04-12 14:52:00,
2013-04-12 11:02:00,54.7,16.5,29.76,NE,51,5.0,11.2,22,0.00,,,-99.99,FreeWX 2.04,2013-04-12 15:02:00,
2013-04-12 11:12:00,55.8,17.4,29.76,North,10,5.0,10.1,22,0.00,,,-99.99,FreeWX 2.04,2013-04-12 15:12:00,
2013-04-12 11:22:00,55.6,20.3,29.79,North,3,4.0,11.2,25,0.00,,,-99.99,FreeWX 2.04,2013-04-12 15:22:00,
2013-04-12 11:32:00,55.9,20.7,29.79,North,5,4.0,7.4,25,0.00,,,-99.99,FreeWX 2.04,2013-04-12 15:32:00,
2013-04-12 11:47:00,58.1,19.4,29.79,NNE,25,7.0,13.4,22,0.00,,,-99.99,FreeWX 2.04,2013-04-12 15:47:00,
2013-04-12 11:58:00,59.4,17.1,29.79,NNE,20,6.0,11.6,19,0.00,,,-99.99,FreeWX 2.04,2013-04-12 15:58:00,
2013-04-12 12:08:00,57.4,15.4,29.79,East,81,5.0,7.4,19,0.00,,,-99.99,FreeWX 2.04,2013-04-12 16:08:00,
2013-04-12 12:18:00,56.7,18.3,29.79,SE,145,5.0,9.2,22,0.00,,,-99.99,FreeWX 2.04,2013-04-12 16:18:00,
2013-04-12 12:28:00,56.8,18.3,29.79,NNE,31,5.0,11.2,22,0.00,,,-99.99,FreeWX 2.04,2013-04-12 16:28:00,
2013-04-12 12:38:00,58.3,19.6,29.79,NNE,14,4.0,10.5,22,0.00,,,-99.99,FreeWX 2.04,2013-04-12 16:38:00,
2013-04-12 12:48:00,59.0,16.9,29.79,NNE,30,5.0,11.2,19,0.00,,,-99.99,FreeWX 2.04,2013-04-12 16:48:00,
2013-04-12 12:58:00,58.1,16.2,29.79,ENE,65,5.0,9.6,19,0.00,,,-99.99,FreeWX 2.04,2013-04-12 16:58:00,
2013-04-12 13:08:00,59.0,16.9,29.79,NNE,15,6.0,11.2,19,0.00,,,-99.99,FreeWX 2.04,2013-04-12 17:08:00,
2013-04-12 13:22:00,59.7,17.4,29.79,NE,45,6.0,15.4,19,0.00,,,-99.99,FreeWX 2.04,2013-04-12 17:22:00,
2013-04-12 13:32:00,59.2,16.9,29.79,ENE,60,6.0,13.4,19,0.00,,,-99.99,FreeWX 2.04,2013-04-12 17:32:00,
2013-04-12 13:57:00,61.3,18.7,29.79,NNE,18,6.0,13.9,19,0.00,,,-99.99,FreeWX 2.04,2013-04-12 17:57:00,
2013-04-12 14:07:00,61.5,18.9,29.79,North,3,6.0,10.5,19,0.00,,,-99.99,FreeWX 2.04,2013-04-12 18:07:00,
2013-04-12 14:27:00,60.4,18.0,29.79,North,3,7.0,13.9,19,0.00,,,-99.99,FreeWX 2.04,2013-04-12 18:27:00,
2013-04-12 15:27:00,62.8,18.7,29.79,NNE,16,7.0,17.2,18,0.00,,,-99.99,FreeWX 2.04,2013-04-12 19:27:00,
2013-04-12 15:37:00,63.9,19.6,29.79,NNE,30,7.0,14.8,18,0.00,,,-99.99,FreeWX 2.04,2013-04-12 19:37:00,
2013-04-12 15:47:00,63.5,19.2,29.79,NE,44,6.0,15.4,18,0.00,,,-99.99,FreeWX 2.04,2013-04-12 19:47:00,
2013-04-12 15:57:00,64.8,20.3,29.79,North,352,4.0,11.0,18,0.00,,,-99.99,FreeWX 2.04,2013-04-12 19:57:00,
2013-04-12 16:07:00,64.6,20.1,29.79,North,11,4.0,10.5,18,0.00,,,-99.99,FreeWX 2.04,2013-04-12 20:07:00,
2013-04-12 16:17:00,64.8,20.3,29.79,NE,34,6.0,13.0,18,0.00,,,-99.99,FreeWX 2.04,2013-04-12 20:17:00,
2013-04-12 16:27:00,64.2,19.8,29.79,NNE,21,6.0,11.6,18,0.00,,,-99.99,FreeWX 2.04,2013-04-12 20:27:00,
2013-04-12 16:37:00,62.8,18.7,29.79,NNE,22,6.0,14.3,18,0.00,,,-99.99,FreeWX 2.04,2013-04-12 20:37:00,
2013-04-12 16:52:00,61.5,18.9,29.79,ENE,61,6.0,13.4,19,0.00,,,-99.99,FreeWX 2.04,2013-04-12 20:52:00,
2013-04-12 17:02:00,61.2,18.5,29.79,ENE,77,4.0,9.6,19,0.00,,,-99.99,FreeWX 2.04,2013-04-12 21:02:00,
2013-04-12 17:12:00,61.0,18.5,29.79,NE,46,4.0,10.5,19,0.00,,,-99.99,FreeWX 2.04,2013-04-12 21:12:00,
2013-04-12 17:22:00,60.1,17.8,29.79,ENE,68,5.0,10.1,19,0.00,,,-99.99,FreeWX 2.04,2013-04-12 21:22:00,
2013-04-12 17:32:00,59.9,17.6,29.79,NE,36,4.0,8.7,19,0.00,,,-99.99,FreeWX 2.04,2013-04-12 21:32:00,
2013-04-12 17:42:00,59.5,17.2,29.79,NE,47,4.0,10.5,19,0.00,,,-99.99,FreeWX 2.04,2013-04-12 21:42:00,
2013-04-12 17:52:00,59.2,16.9,29.82,NNE,21,4.0,9.6,19,0.00,,,-99.99,FreeWX 2.04,2013-04-12 21:52:00,
2013-04-12 18:02:00,59.2,16.9,29.82,NNE,30,6.0,13.9,19,0.00,,,-99.99,FreeWX 2.04,2013-04-12 22:02:00,
2013-04-12 18:12:00,59.2,16.9,29.82,NE,53,3.0,9.6,19,0.00,,,-99.99,FreeWX 2.04,2013-04-12 22:12:00,
2013-04-12 18:22:00,59.0,16.9,29.82,NE,39,4.0,11.0,19,0.00,,,-99.99,FreeWX 2.04,2013-04-12 22:22:00,
2013-04-12 18:32:00,58.6,16.5,29.82,NNE,17,4.0,8.3,19,0.00,,,-99.99,FreeWX 2.04,2013-04-12 22:32:00,
2013-04-12 18:42:00,58.3,16.2,29.82,NE,47,4.0,7.8,19,0.00,,,-99.99,FreeWX 2.04,2013-04-12 22:42:00,
2013-04-12 18:52:00,57.6,15.6,29.82,NNE,33,4.0,9.6,19,0.00,,,-99.99,FreeWX 2.04,2013-04-12 22:52:00,
2013-04-12 19:07:00,56.8,15.1,29.82,ENE,64,3.0,12.1,19,0.00,,,-99.99,FreeWX 2.04,2013-04-12 23:07:00,
2013-04-12 19:17:00,56.7,14.9,29.82,NE,44,5.0,8.7,19,0.00,,,-99.99,FreeWX 2.04,2013-04-12 23:17:00,
2013-04-12 19:27:00,56.5,14.7,29.82,NNE,32,4.0,9.2,19,0.00,,,-99.99,FreeWX 2.04,2013-04-12 23:27:00,
2013-04-12 19:37:00,56.1,15.6,29.82,ENE,63,3.0,7.4,20,0.00,,,-99.99,FreeWX 2.04,2013-04-12 23:37:00,
2013-04-12 19:47:00,55.8,15.3,29.82,NNE,28,4.0,13.0,20,0.00,,,-99.99,FreeWX 2.04,2013-04-12 23:47:00,
2013-04-12 19:57:00,55.4,15.1,29.82,NE,43,4.0,9.6,20,0.00,,,-99.99,FreeWX 2.04,2013-04-12 23:57:00,
2013-04-12 20:07:00,55.0,14.7,29.85,East,80,2.0,5.4,20,0.00,,,-99.99,FreeWX 2.04,2013-04-13 00:07:00,
2013-04-12 20:17:00,54.9,14.5,29.85,SSE,150,2.0,6.3,20,0.00,,,-99.99,FreeWX 2.04,2013-04-13 00:17:00,
2013-04-12 20:27:00,54.7,14.4,29.85,NNE,22,2.0,5.8,20,0.00,,,-99.99,FreeWX 2.04,2013-04-13 00:27:00,
2013-04-12 20:37:00,54.5,14.2,29.85,ESE,103,3.0,11.6,20,0.00,,,-99.99,FreeWX 2.04,2013-04-13 00:37:00,
2013-04-12 20:47:00,54.3,14.2,29.85,NNE,22,3.0,7.4,20,0.00,,,-99.99,FreeWX 2.04,2013-04-13 00:47:00,
2013-04-12 20:57:00,54.1,14.0,29.85,East,81,3.0,5.8,20,0.00,,,-99.99,FreeWX 2.04,2013-04-13 00:57:00,
2013-04-12 21:07:00,54.0,13.8,29.85,NNE,14,2.0,6.9,20,0.00,,,-99.99,FreeWX 2.04,2013-04-13 01:07:00,
2013-04-12 21:17:00,53.8,16.9,29.85,East,85,3.0,5.4,23,0.00,,,-99.99,FreeWX 2.04,2013-04-13 01:17:00,
2013-04-12 21:27:00,53.8,16.9,29.85,NNE,19,3.0,7.8,23,0.00,,,-99.99,FreeWX 2.04,2013-04-13 01:27:00,
2013-04-12 21:37:00,53.6,16.7,29.85,East,99,4.0,7.8,23,0.00,,,-99.99,FreeWX 2.04,2013-04-13 01:37:00,
2013-04-12 21:47:00,53.4,16.5,29.88,SE,128,3.0,8.7,23,0.00,,,-99.99,FreeWX 2.04,2013-04-13 01:47:00,
2013-04-12 21:57:00,53.2,16.3,29.88,ESE,103,2.0,6.3,23,0.00,,,-99.99,FreeWX 2.04,2013-04-13 01:57:00,
2013-04-12 22:08:00,53.2,16.3,29.88,ENE,58,2.0,5.8,23,0.00,,,-99.99,FreeWX 2.04,2013-04-13 02:08:00,
2013-04-12 22:18:00,53.2,16.3,29.88,ESE,114,2.0,5.8,23,0.00,,,-99.99,FreeWX 2.04,2013-04-13 02:18:00,
2013-04-12 22:28:00,53.1,16.3,29.88,ESE,116,3.0,7.8,23,0.00,,,-99.99,FreeWX 2.04,2013-04-13 02:28:00,
2013-04-12 22:38:00,53.1,16.3,29.88,North,11,2.0,4.9,23,0.00,,,-99.99,FreeWX 2.04,2013-04-13 02:38:00,
2013-04-12 22:48:00,52.5,18.7,29.88,NE,40,4.0,7.4,26,0.00,,,-99.99,FreeWX 2.04,2013-04-13 02:48:00,
2013-04-12 22:58:00,51.6,17.8,29.88,ESE,112,4.0,7.4,26,0.00,,,-99.99,FreeWX 2.04,2013-04-13 02:58:00,
2013-04-12 23:08:00,50.9,17.2,29.91,SE,129,3.0,6.9,26,0.00,,,-99.99,FreeWX 2.04,2013-04-13 03:08:00,
2013-04-12 23:18:00,50.4,16.9,29.91,SE,128,3.0,5.4,26,0.00,,,-99.99,FreeWX 2.04,2013-04-13 03:18:00,
2013-04-12 23:28:00,50.2,16.7,29.91,SSE,149,2.0,5.4,26,0.00,,,-99.99,FreeWX 2.04,2013-04-13 03:28:00,
2013-04-12 23:38:00,49.8,16.3,29.91,SE,125,3.0,5.4,26,0.00,,,-99.99,FreeWX 2.04,2013-04-13 03:38:00,
2013-04-12 23:48:00,49.6,17.1,29.91,ESE,120,3.0,5.8,27,0.00,,,-99.99,FreeWX 2.04,2013-04-13 03:48:00,
2013-04-12 23:58:00,49.5,16.9,29.91,NE,39,2.0,4.9,27,0.00,,,-99.99,FreeWX 2.04,2013-04-13 03:58:00,